Location: Rowland
(34.5359°N, 79.2929°W)
Time: 18:33:31
(UTC+00:00)

SR - Pass Details

Date: 03 October 2022
Orbit: 577 x 874 km, 66.7° (Epoch: 05 December)

Event Time Altitude Azimuth Distance (km) Brightness Sun altitude
Rises 11:57:04 0° 324° (NW) 3,253 ? 8.1°
Reaches altitude 10° 11:59:43 10° 316° (NW) 2,272 ? 8.6°
Maximum altitude 12:04:24 36° 251° (WSW) 1,109 ? 9.6°
Drops below altitude 10° 12:08:43 10° 185° (S) 2,080 ? 10.4°
Sets 12:11:03 0° 176° (S) 2,942 ? 10.9°
